Regional Weather Roundup
Issued by NWS

Home | Current Version | Previous Version | Graphics & Text | Print | Product List | Glossary Off
Versions: 1 2 3 4 5 6 7 8 9 10 11 12 13 14 15 16 17 18 19 20 21 22 23 24 25 26 27 28 29 30 31 32 33 34 35 36 37 38 39 40 41 42 43 44 45 46 47 48 49 50

000
ASUS43 KDTX 200001
RWRMI
MICHIGAN HOURLY REGIONAL WEATHER ROUNDUP
NATIONAL WEATHER SERVICE DETROIT/PONTIAC MI
700 PM EST FRI DEC 19 2014

NOTE: "FAIR" INDICATES FEW OR NO CLOUDS BELOW 12,000 FEET WITH NO
SIGNIFICANT WEATHER AND/OR OBSTRUCTION TO VISIBILITY.

MIZ047>049-052>055-059>063-066>070-074>076-081>083-200100-
SOUTHEAST LOWER MICHIGAN

CITY           SKY/WX    TMP DP  RH WIND       PRES   REMARKS
ADRIAN         CLOUDY    30  23  75 W3        30.32R
6HR MIN TEMP:  29; 6HR MAX TEMP:  30;

ALMA           CLEAR     23  22  94 CALM      30.31R
6HR MIN TEMP:  23; 6HR MAX TEMP:  30;

ANN ARBOR      CLOUDY    28  21  75 W3        30.31R
BAD AXE        CLEAR     20  18  94 CALM      30.30R
6HR MIN TEMP:  20; 6HR MAX TEMP:  30;

CARO           CLEAR     22  20  92 CALM      30.29S
DETROIT CITY   FAIR      28  19  69 SW8       30.32R WCI  20
6HR MIN TEMP:  28; 6HR MAX TEMP:  34;

DETROIT        PTCLDY    25  19  78 W5        30.33R WCI  19
6HR MIN TEMP:  25; 6HR MAX TEMP:  29;

FLINT          PTCLDY    26  18  71 W5        30.31R WCI  20
6HR MIN TEMP:  26; 6HR MAX TEMP:  33;

GROSSE ILE     CLOUDY    28  21  74 W3        30.31R
HILLSDALE      CLOUDY    30  25  84 CALM      30.29R
6HR MIN TEMP:  29; 6HR MAX TEMP:  30;

HOWELL         CLEAR     23  19  86 SW3       30.30R
6HR MIN TEMP:  23; 6HR MAX TEMP:  29;


CITY           SKY/WX    TMP DP  RH WIND       PRES   REMARKS
JACKSON        CLOUDY    28  22  78 W5        30.30R WCI  23
6HR MIN TEMP:  27; 6HR MAX TEMP:  29;

LAMBERTVILLE   CLOUDY    32  27  80 CALM      30.32R
LANSING        PTCLDY    24  18  77 SW3       30.32R
6HR MIN TEMP:  24; 6HR MAX TEMP:  29;

LAPEER         FAIR      25  20  82 CALM      30.30R
MASON          CLOUDY    26  20  78 CALM      30.31R
MONROE         CLOUDY    28  25  86 CALM      30.31R
MT. CLEMENS    CLEAR     28  21  75 VRB1      30.28R
6HR MIN TEMP:  26; 6HR MAX TEMP:  33;

PONTIAC        CLEAR     25  19  78 W7        30.28R WCI  17
6HR MIN TEMP:  25; 6HR MAX TEMP:  31;

PORT HOPE        N/A     28  19  69 W3        30.29R
6HR MIN TEMP:  28; 6HR MAX TEMP:  30;

PORT HURON     CLOUDY    28  21  74 CALM      30.30R
TRI CITIES     CLEAR     27  19  72 SW3       30.31R
6HR MIN TEMP:  27; 6HR MAX TEMP:  33;

TROY           CLEAR     29  21  70 SW7       30.32R WCI  22
SAGINAW HB     CLEAR     28  21  74 CALM      30.30R
$$
MIZ043>046-050>051-056>058-064>065-071>073-077>080-200100-
SOUTHWEST LOWER MICHIGAN

CITY           SKY/WX    TMP DP  RH WIND       PRES   REMARKS
BATTLE CREEK   PTCLDY    25  18  74 SW3       30.31R
6HR MIN TEMP:  24; 6HR MAX TEMP:  31;

BENTON HARBOR  CLOUDY    30  25  81 E3        30.31S
6HR MIN TEMP:  29; 6HR MAX TEMP:  32;

BIG RAPIDS     CLEAR     24  20  85 CALM      30.29R
6HR MIN TEMP:  24; 6HR MAX TEMP:  31;

COLDWATER      CLEAR     25  21  85 MISG      30.31R
6HR MIN TEMP:  25; 6HR MAX TEMP:  30;

FREMONT        FAIR      24  15  67 CALM      30.30R
HOLLAND        CLEAR     27  20  75 CALM      30.32R
6HR MIN TEMP:  26; 6HR MAX TEMP:  35;

GRAND RAPIDS   PTCLDY    25  18  74 S6        30.30R WCI  18
6HR MIN TEMP:  25; 6HR MAX TEMP:  33;

IONIA          FAIR      27  23  85 S3        30.29S
KALAMAZOO      CLEAR     28  21  75 E3        30.31R
6HR MIN TEMP:  28; 6HR MAX TEMP:  33;

LUDINGTON        N/A     23  21  91 CALM      30.32R FOG
MARSHALL       PTCLDY    26  20  77 CALM      30.30R
MOUNT PLEASANT CLEAR     24  18  77 CALM      30.29R
6HR MIN TEMP:  24; 6HR MAX TEMP:  32;

MUSKEGON       CLEAR     26  18  71 CALM      30.31R
6HR MIN TEMP:  26; 6HR MAX TEMP:  35;

SOUTH HAVEN    CLEAR     25  20  82 CALM      30.31S
$$
MIZ016>042-200100-
NORTHERN LOWER MICHIGAN

CITY           SKY/WX    TMP DP  RH WIND       PRES   REMARKS
ALPENA         CLEAR     18  15  88 CALM      30.30R
6HR MIN TEMP:  18; 6HR MAX TEMP:  30;

BEAVER ISLAND  CLEAR     16  15  95 CALM      30.29S
6HR MIN TEMP:  16; 6HR MAX TEMP:  28;

BELLAIRE       CLOUDY    28  24  86 CALM      30.30R
6HR MIN TEMP:  25; 6HR MAX TEMP:  29;

CADILLAC       CLOUDY    19  17  93 CALM      30.25R
CHARLEVOIX     CLOUDY    21  20  95 CALM      30.32S
6HR MIN TEMP:  20; 6HR MAX TEMP:  28;

FRANKFORT      CLOUDY    29  24  81 CALM      30.29R
GAYLORD        CLEAR     17  13  84 CALM      30.25R
6HR MIN TEMP:  15; 6HR MAX TEMP:  28;

GRAYLING       CLEAR     16  14  94 CALM      30.27R
6HR MIN TEMP:  16; 6HR MAX TEMP:  30;

HARBOR SPRINGS CLEAR     20  16  85 CALM      30.29R
HOUGHTON LAKE  CLEAR     20  17  88 NW3       30.27R
6HR MIN TEMP:  19; 6HR MAX TEMP:  28;

MANISTEE       CLOUDY    28  19  69 CALM      30.31R
OSCODA         CLEAR     15  15  96 W3        30.29S
PELLSTON       CLEAR     13  12  96 CALM      30.30R FOG
6HR MIN TEMP:  10; 6HR MAX TEMP:  29;

ROGERS CITY    PTCLDY    16  16  98 W5        30.30S WCI   9
TRAVERSE CITY  CLOUDY    29  21  72 W5        30.29R WCI  24
6HR MIN TEMP:  29; 6HR MAX TEMP:  31;

$$
MIZ007>008-015-200100-
EASTERN UPPER MICHIGAN

CITY           SKY/WX    TMP DP  RH WIND       PRES   REMARKS
KINROSS        CLEAR     16  12  86 E3        30.28R
6HR MIN TEMP:  16; 6HR MAX TEMP:  30;

MACKINAC ISLAN CLEAR     17  14  90 CALM      30.28R
6HR MIN TEMP:  17; 6HR MAX TEMP:  27;

NEWBERRY       CLEAR     14  13  99 CALM      30.27R
S. S. MARIE    PTCLDY    18  12  77 S3        30.29R
6HR MIN TEMP:  17; 6HR MAX TEMP:  26;

MUNISING         N/A     31  21  66 NE3       30.27S
6HR MIN TEMP:  30; 6HR MAX TEMP:  33;

$$
MIZ004>006-011>014-085-200100-
CENTRAL UPPER MICHIGAN

CITY           SKY/WX    TMP DP  RH WIND       PRES   REMARKS
MANISTIQUE     CLOUDY    28  22  79 CALM      30.27S
ESCANABA       CLOUDY    28  18  64 W3        30.28S
6HR MIN TEMP:  27; 6HR MAX TEMP:  30;

MENOMINEE      CLEAR     23  19  86 CALM      30.29R
6HR MIN TEMP:  23; 6HR MAX TEMP:  30;

SAWYER-GWINN   CLOUDY    27  19  74 CALM      30.24S
$$
MIZ001>003-009>011-084-200100-
WESTERN UPPER MICHIGAN

CITY           SKY/WX    TMP DP  RH WIND       PRES   REMARKS
IRON MOUNTAIN  CLEAR     14  12  92 CALM      30.24R FOG
6HR MIN TEMP:  14; 6HR MAX TEMP:  27;

HOUGHTON       CLOUDY    24  18  77 CALM      30.23S
6HR MIN TEMP:  23; 6HR MAX TEMP:  27;

COPPER HARBOR    N/A     29  23  78 CALM      30.25F
6HR MIN TEMP:  29; 6HR MAX TEMP:  32;

IRONWOOD       CLOUDY    23  21  93 S3        30.19S
6HR MIN TEMP:  21; 6HR MAX TEMP:  23;

$$

ABBREVIATIONS USED IN REMARKS
   TC - TEMPERATURE IN CELSIUS
  WCI - WIND CHILL INDEX
   HX - HEAT INDEX
  VSB - VISIBILITY



USA.gov is the U.S. government's official web portal to all federal, state and local government web resources and services.